Overview Statistics Trail Chart Weather Telemetry Raw packets
 

This is the latest recevied weather packets stored in our database for station/object IW1RCO-13. If no packets are shown the sender has not sent any weather packets the latest 10 day(s).

<< 21 22 23 24 25 26 27 >>
Time Temp. Humidity Pressure Rain* Wind** Luminosity Snow
1788510273 26.11° C 53% 1019.8 hPa - - - -
1788509969 25.56° C 56% 1019.8 hPa - - - -
1788509672 25.56° C 57% 1019.8 hPa - - - -
1788509369 25.56° C 55% 1019.8 hPa - - - -
1788509072 25.56° C 57% 1019.8 hPa - - - -
1788508769 25.56° C 55% 1020.2 hPa - - - -
1788508494 25.56° C 57% 1019.7 hPa - - - -
1788508168 25° C 56% 1019.8 hPa - - - -
1788507872 25° C 57% 1019.6 hPa - - - -
1788507568 24.44° C 59% 1019.6 hPa - - - -
1788507271 24.44° C 58% 1019.8 hPa - - - -
1788506968 24.44° C 62% 1019.9 hPa - - - -
1788506671 23.89° C 63% 1019.6 hPa - - - -
1788506368 23.89° C 66% 1019.7 hPa - - - -
1788506071 23.33° C 65% 1019.7 hPa - - - -
1788503966 21.67° C 74% 1019.7 hPa - - - -
1788503670 21.11° C 76% 1019.7 hPa - - - -
1788503373 21.11° C 77% 1019.5 hPa - - - -
1788503069 20.56° C 77% 1019.5 hPa - - - -
1788502773 20.56° C 76% 1019.6 hPa - - - -
1788502469 20° C 76% 1019.5 hPa - - - -
1788502172 20° C 77% 1019.5 hPa - - - -
1788501869 20° C 74% 1019.6 hPa - - - -
1788501572 20° C 77% 1019.2 hPa - - - -
1788501269 20° C 77% 1019.5 hPa - - - -

* Rain since midnight (hover to see other rain measurements)
** Current wind speed in m/s (hover to see current wind gust speed)